Location: Unspecified
(0.0000°N, 0.0000°E)
Time: 14:16:14
(UTC+02:00)

ADEOS II - Visible Passes

Search period start: 25 September 2016 00:00
Search period end: 05 October 2016 00:00
Orbit: 799 x 802 km, 98.3° (Epoch: 24 September)

Date Brightness Start Highest point End Pass type
(mag) Time Alt. Az. Time Alt. Az. Time Alt. Az.
25 Sep 2.4 05:49:23 10° NNE 05:53:42 60° NE 05:53:42 60° NE visible
26 Sep 3.6 05:23:33 10° NE 05:35:35 - S 05:27:06 32° ENE visible
26 Sep 3.6 07:05:15 10° NW 07:07:47 14° WNW 07:08:04 14° W visible
27 Sep 4.6 04:58:37 10° ENE 05:08:25 - SSE 05:00:31 16° E visible
27 Sep 2.9 06:37:04 10° NNW 06:41:29 28° WNW 06:41:29 28° WNW visible
28 Sep 2.1 06:10:06 10° N 06:22:08 - SSW 06:14:54 58° WNW visible
29 Sep 2.4 05:43:46 10° NNE 05:54:56 - S 05:48:21 61° ENE visible
30 Sep 3.7 05:18:04 10° NE 05:27:42 - SSE 05:21:49 30° E visible
30 Sep 3.5 06:59:03 10° NW 07:02:09 16° WNW 07:02:47 16° W visible
01 Oct 4.7 04:53:26 10° ENE 05:00:25 - SE 04:55:19 15° E visible
01 Oct 2.7 06:31:14 10° NNW 06:35:53 33° WNW 06:36:17 32° W visible
02 Oct 1.9 06:04:23 10° N 06:09:36 69° WNW 06:14:50 10° SSW visible
03 Oct 2.6 05:38:10 10° NNE 05:43:19 58° ESE 05:48:29 10° S visible
04 Oct 3.9 05:12:38 10° NE 05:17:03 28° ESE 05:21:28 10° SSE visible
04 Oct 3.3 06:52:58 10° NW 06:56:30 18° WNW 07:00:03 10° WSW visible
